Hourly Data Report for October 20, 2015

All times are specified in Local Standard Time (LST). Add 1 hour to adjust for Daylight Saving Time where and when it is observed.

EUREKA CLIMATE
NUNAVUT

79°59'21.000" N
85°56'02.000" W
10.00 m
2401199
71613
NEK

Download Data

Hourly Data (October 2015)
Hourly Data Report for October 20, 2015
Temp Definition
°C
Dew Point Temp Definition
°C
Rel Hum Definition
%
Wind Dir Definition
10's deg

Wind Spd Definition
km/h
Visibility Definition
km
Stn Press Definition
kPa
Hmdx Definition


Wind Chill Definition


Weather Definition


TIME
00:00 -14.4 -15.6 90 15 33   100.42   -26 LegendNANA
01:00 -14.0 -15.1 91 14 33   100.35   -25 LegendNANA
02:00 -13.9 -15.0 92 12 33   100.29   -25 LegendNANA
03:00 -13.3 -14.7 90 13 23   100.28   -23 LegendNANA
04:00 -13.2 -14.6 89 14 28   100.24   -23 LegendNANA
05:00 -13.0 -14.4 90 14 22   100.21   -22 LegendNANA
06:00 -13.2 -14.7 88 16 21   100.18   -22 LegendNANA
07:00 -13.1 -14.5 89 16 25   100.14   -23 LegendNANA
08:00 -13.1 -14.4 90 16 25   100.10   -23 LegendNANA
09:00 -13.3 -14.6 90 16 24   100.07   -23 LegendNANA
10:00 -13.7 -15.1 89 16 24   100.05   -23 LegendNANA
11:00 -13.7 -15.2 89 17 26   100.04   -24 LegendNANA
12:00 -13.6 -15.2 88 17 26   100.04   -24 LegendNANA
13:00 -13.5 -14.9 89 17 25   100.04   -23 LegendNANA
14:00 -13.7 -15.3 88 17 23   100.03   -23 LegendNANA
15:00 -14.5 -16.2 86 19 17   100.04   -23 LegendNANA
16:00 -15.7 -17.5 86 16 17   100.03   -24 LegendNANA
17:00 -16.3 -18.1 86 11 12   100.03   -24 LegendNANA
18:00 -15.5 -17.2 86 12 9   100.02   -21 LegendNANA
19:00 -15.1 -17.0 85 15 18   99.97   -24 LegendNANA
20:00 -15.2 -17.1 85 15 21   99.96   -25 LegendNANA
21:00 -15.6 -17.8 84 14 20   99.96   -25 LegendNANA
22:00 -15.4 -17.4 85 14 28   99.91   -26 LegendNANA
23:00 -15.0 -17.2 83 13 25   99.91   -25 LegendNANA

Notes on Data Quality.

Legend

  • E = Estimated
  • M = Missing
  • NA = Not Available
  • ‡ = Partner data that is not subject to review by the National Climate Archives
Date modified: